Wind_Speed
49 49 50 50 50 50 51 51 51 51 50 50 49 49 49 48 47 47 46 46 46 45 44 43 43 42 41 41 41 39 39 38 38 37 37 36 36 35 35 35 34 34 33
50 51 51 51 52 52 52 52 52 52 51 50 50 49 48 47 46 46 46 45 44 44 43 42 41 41 40 40 38 38 37 37 37 36 35 35 34 34 34 34 34 33 32
48 49 50 51 51 52 52 52 52 51 50 49 48 47 47 46 45 45 45 44 43 42 41 40 40 39 38 38 37 36 36 36 35 35 34 34 34 33 33 33 33 32 31
45 46 47 48 49 49 49 49 49 48 48 46 46 45 44 44 43 43 43 42 42 41 40 39 38 37 36 36 35 35 34 34 34 34 33 33 33 33 33 33 32 32 32
43 43 44 45 45 45 45 45 45 45 44 44 44 43 43 43 42 42 41 40 39 38 38 37 36 35 35 34 33 33 33 33 33 33 32 32 33 33 33 33 33 33 33
41 41 42 42 42 42 42 43 43 43 42 42 42 42 41 41 41 40 39 38 37 36 35 34 34 33 32 31 31 31 31 32 32 32 32 32 33 33 33 33 34 34 34
40 40 40 40 40 40 40 40 40 40 40 40 40 40 39 39 38 37 36 35 35 34 33 32 31 30 30 30 30 31 31 31 32 32 33 33 34 34 34 34 35 35 35
38 38 38 38 38 38 37 37 37 37 37 37 36 36 36 36 35 34 34 33 32 31 30 30 30 29 29 30 30 30 31 31 32 33 33 34 34 35 35 35 36 36 37
36 36 37 37 37 36 35 35 35 35 34 34 33 33 33 32 32 32 31 30 30 29 29 29 29 29 30 30 30 31 31 32 32 33 34 34 35 35 36 37 37 38 39
33 33 34 34 34 34 34 33 32 32 31 31 31 31 30 30 30 29 29 29 29 29 29 29 29 29 30 30 31 31 32 33 33 34 35 35 36 37 37 38 39 40 40
29 29 30 30 30 31 31 31 30 30 29 29 30 29 29 29 29 29 29 28 28 29 29 29 29 30 30 31 31 32 33 33 34 35 36 36 37 38 39 40 41 41 42
27 28 28 28 28 28 28 28 28 28 28 28 29 29 28 28 28 28 28 29 29 30 30 30 30 31 31 32 32 33 34 35 36 36 37 38 39 40 41 42 42 43 44
26 26 26 26 27 27 28 28 28 28 28 28 28 28 29 29 29 29 29 30 30 31 31 31 31 32 32 33 33 34 36 36 37 38 39 40 41 41 42 43 44 45 46
25 26 26 26 27 27 27 27 27 27 28 28 28 29 29 29 29 30 30 31 32 32 32 32 33 33 34 35 36 36 37 38 39 40 41 41 42 42 43 44 45 46 46
26 26 26 26 26 27 27 27 28 28 29 29 29 30 30 30 31 31 32 32 33 33 33 34 34 35 36 37 38 38 39 40 40 41 42 42 43 44 45 45 46 47 47
26 27 27 28 28 28 27 28 28 28 29 30 30 30 31 32 32 33 33 33 34 34 34 35 36 37 38 38 39 39 40 41 42 42 43 43 44 45 46 46 47 47 48
27 27 27 28 28 28 28 29 29 30 30 30 31 31 32 32 32 33 33 34 35 35 36 37 37 38 39 40 40 41 42 42 42 43 43 44 45 46 47 47 48 48 48
28 28 29 30 30 30 30 30 30 31 31 31 32 32 33 33 34 35 35 35 36 37 37 38 39 39 40 40 41 41 42 42 42 43 43 44 45 46 47 48 48 48 48
30 30 31 31 31 31 31 31 31 32 32 32 33 34 34 35 35 36 36 37 38 38 38 39 40 40 40 40 41 41 42 42 43 43 45 46 47 47 48 47 47 47 48
31 32 32 32 33 33 33 34 34 34 34 34 34 35 35 36 36 37 37 38 38 39 39 40 40 40 41 41 41 42 42 43 43 44 45 46 47 47 47 47 47 48 48
32 32 32 33 33 34 34 35 35 35 35 36 36 36 37 37 38 38 38 39 39 40 40 41 41 41 41 42 42 42 43 43 44 45 45 46 46 46 46 46 47 47 48
32 33 33 33 33 34 35 35 35 36 36 36 37 37 38 38 39 39 40 40 40 41 41 41 41 41 41 41 41 42 42 43 43 43 44 45 45 45 45 47 48 48 49
32 32 33 33 33 33 34 34 35 35 35 36 37 37 38 39 40 40 41 41 41 41 41 41 41 41 40 40 41 41 41 42 42 43 44 44 45 46 47 48 49 49 49
30 31 32 32 32 33 33 33 34 34 35 36 37 37 38 39 39 40 40 40 41 41 41 40 40 40 40 40 40 40 40 41 42 43 44 45 46 47 48 49 49 49 49
29 30 30 31 31 31 32 32 33 34 34 35 35 36 36 37 37 38 38 38 38 38 38 38 38 39 39 38 39 39 40 41 43 44 45 46 47 48 49 49 49 49 49
29 29 29 29 30 30 31 31 31 32 32 33 33 34 34 35 35 35 35 35 35 35 36 36 37 37 38 38 39 40 41 43 44 45 46 47 48 49 49 49 49 49 49
Wind_Direction
253 254 256 257 259 260 261 263 264 266 267 268 270 271 273 275 277 278 280 281 283 284 285 285 286 287 287 289 290 290 291 292 293 293 294 294 295 295 296 297 298 300 301
254 255 257 259 260 261 262 264 265 266 267 268 270 271 273 275 276 278 279 280 282 282 283 284 285 285 287 288 289 290 291 292 293 293 294 294 295 296 296 297 298 299 300
255 256 258 259 261 262 263 264 265 266 268 269 270 271 273 275 276 277 278 279 280 281 281 282 283 285 286 287 289 290 291 292 293 293 294 294 295 296 296 297 297 298 299
256 257 259 260 262 264 265 266 267 268 269 269 270 271 272 273 275 276 277 277 278 279 280 281 282 283 285 287 289 290 291 292 293 293 293 294 295 296 297 297 297 297 298
258 259 260 261 262 263 264 265 266 267 267 268 269 269 270 272 273 274 275 275 276 277 278 280 281 282 285 287 289 290 291 292 293 293 294 295 296 296 296 296 296 297 297
260 261 262 262 262 263 263 264 264 265 265 266 267 268 270 271 272 272 273 273 274 275 277 278 280 283 285 287 289 291 292 293 294 294 295 295 296 296 296 296 296 296 296
260 261 262 262 262 263 264 264 265 265 265 266 266 268 269 269 270 270 271 272 273 274 276 278 281 283 285 288 290 292 293 294 294 294 295 296 296 296 296 296 296 296 296
261 261 261 261 262 263 263 264 265 265 265 265 266 267 267 268 267 268 269 270 271 273 275 278 281 283 285 288 290 292 293 294 295 295 295 296 296 296 296 296 296 296 296
261 262 262 262 262 263 264 265 265 264 264 265 265 265 266 266 266 266 267 268 270 273 275 278 281 284 287 289 290 292 293 294 295 296 296 296 296 296 296 296 296 296 296
262 262 262 262 262 262 263 263 264 263 263 263 263 263 263 264 265 266 267 268 270 273 276 279 282 285 288 289 291 292 294 295 295 296 296 296 296 296 296 296 296 296 296
262 263 262 262 262 261 261 261 262 261 262 262 261 262 262 263 264 265 266 269 272 275 277 280 283 286 288 290 291 293 294 295 295 296 296 296 296 296 296 296 297 297 297
262 262 261 261 261 261 261 261 261 261 261 261 261 262 262 262 264 265 268 271 274 276 278 281 283 286 288 290 292 293 294 295 296 296 296 296 296 296 297 297 297 298 298
260 260 261 261 261 262 262 262 262 261 261 261 262 262 263 264 265 267 269 272 275 277 279 281 284 286 289 291 292 294 295 296 296 296 296 297 297 297 297 298 298 299 299
260 261 261 262 263 264 264 262 262 262 263 263 263 264 265 266 267 269 272 275 277 279 280 282 285 287 289 291 292 294 294 295 296 296 297 297 297 297 298 299 299 300 300
260 261 261 262 264 264 264 264 264 264 264 264 264 264 265 267 269 271 274 276 278 280 281 283 285 286 288 290 292 293 294 295 296 297 298 298 298 298 299 299 300 300 300
260 262 262 262 263 263 263 265 266 265 266 266 265 266 267 269 271 273 274 276 278 280 282 283 285 287 289 290 292 293 294 296 296 297 297 298 299 299 299 300 301 301 301
261 262 263 263 262 263 264 265 266 266 267 267 267 267 268 270 272 274 275 277 279 281 282 284 286 288 289 290 292 293 295 296 297 297 298 299 299 300 300 301 301 301 301
263 263 263 263 263 263 264 265 266 266 267 268 268 269 270 271 273 275 276 278 280 282 283 285 287 288 290 291 292 294 295 296 297 298 299 299 300 301 301 301 301 302 302
263 263 264 264 264 263 264 265 266 267 267 268 269 270 271 273 274 276 277 279 280 282 284 285 287 289 290 292 293 294 295 296 297 298 299 300 301 301 301 301 302 302 303
264 264 264 264 264 264 264 265 266 266 267 269 270 272 273 273 275 277 278 279 281 282 284 286 288 290 291 292 293 294 295 297 298 299 300 300 301 301 302 302 302 303 303
265 265 265 264 264 264 265 265 266 267 268 269 271 272 273 274 276 277 278 279 281 282 284 286 288 290 291 293 294 294 295 297 298 300 301 301 302 302 302 303 303 304 304
266 266 266 266 266 266 266 267 267 268 268 269 270 271 273 275 276 277 278 279 281 282 284 286 288 289 291 293 294 295 296 297 299 300 301 302 302 303 303 304 304 304 304
267 267 267 267 267 267 268 268 268 268 269 270 271 272 274 276 276 278 279 280 281 283 284 286 288 290 292 293 295 296 297 298 300 301 302 302 303 303 304 304 304 305 304
268 268 268 268 268 268 269 269 270 270 271 272 273 274 275 276 278 279 279 280 281 282 283 285 288 290 292 293 295 296 297 299 300 301 302 303 303 304 304 305 305 305 304
269 269 269 269 269 270 270 271 271 272 273 274 274 275 276 278 279 280 281 282 282 283 284 285 288 291 292 294 295 296 297 299 301 301 302 303 303 304 304 304 305 304 304
268 269 271 271 271 271 272 273 273 274 274 274 275 276 277 279 281 282 282 282 283 284 285 287 289 291 293 294 295 297 298 300 301 302 302 303 304 304 304 304 304 304 304
Height
5736 5737 5739 5740 5742 5743 5744 5744 5745 5745 5745 5746 5745 5745 5745 5744 5743 5742 5740 5739 5737 5734 5732 5729 5727 5724 5721 5718 5715 5711 5708 5705 5702 5698 5695 5691 5688 5685 5682 5679 5676 5672 5669
5724 5726 5727 5729 5730 5731 5732 5732 5733 5734 5734 5734 5734 5734 5733 5732 5732 5731 5729 5727 5726 5723 5721 5719 5717 5714 5711 5708 5705 5701 5698 5695 5692 5689 5686 5683 5680 5676 5673 5670 5667 5664 5661
5713 5714 5716 5717 5718 5719 5720 5721 5721 5722 5722 5722 5722 5722 5721 5721 5720 5719 5718 5716 5715 5713 5711 5709 5706 5704 5701 5698 5695 5692 5689 5686 5683 5680 5677 5674 5671 5668 5665 5662 5659 5656 5653
5702 5703 5704 5705 5706 5707 5708 5708 5709 5709 5710 5710 5710 5710 5710 5709 5708 5707 5706 5705 5704 5702 5700 5698 5696 5694 5691 5689 5686 5683 5680 5677 5674 5671 5668 5665 5663 5659 5656 5653 5650 5647 5645
5691 5692 5693 5694 5695 5695 5696 5697 5697 5698 5698 5698 5698 5698 5698 5698 5697 5696 5695 5694 5693 5691 5690 5688 5686 5684 5682 5679 5677 5674 5671 5668 5665 5663 5660 5657 5654 5651 5648 5645 5642 5639 5636
5680 5681 5682 5683 5684 5684 5685 5685 5686 5686 5686 5687 5687 5687 5687 5686 5686 5685 5684 5683 5682 5681 5680 5678 5676 5674 5672 5670 5668 5665 5662 5660 5657 5654 5651 5648 5646 5642 5639 5636 5633 5630 5627
5670 5671 5672 5672 5673 5673 5674 5674 5674 5675 5675 5675 5675 5676 5676 5675 5675 5675 5674 5673 5672 5672 5670 5669 5667 5665 5663 5661 5659 5656 5654 5651 5648 5646 5643 5640 5637 5634 5630 5627 5624 5621 5618
5660 5661 5661 5662 5662 5663 5663 5664 5664 5664 5665 5665 5665 5665 5665 5665 5665 5665 5664 5664 5663 5662 5661 5660 5659 5657 5655 5653 5650 5648 5645 5642 5640 5637 5634 5631 5627 5624 5621 5618 5614 5611 5607
5650 5651 5652 5652 5653 5653 5653 5654 5654 5655 5655 5655 5655 5656 5656 5656 5656 5656 5655 5655 5655 5654 5653 5651 5650 5648 5646 5644 5642 5639 5636 5634 5631 5628 5625 5621 5618 5614 5611 5608 5604 5601 5597
5641 5642 5642 5643 5643 5644 5644 5645 5645 5645 5646 5646 5647 5647 5647 5647 5647 5647 5647 5647 5646 5645 5644 5643 5641 5639 5637 5635 5633 5630 5627 5625 5621 5618 5615 5612 5608 5604 5601 5597 5593 5590 5586
5633 5633 5634 5634 5635 5635 5636 5636 5636 5637 5637 5638 5638 5639 5639 5639 5639 5639 5639 5638 5638 5637 5635 5634 5632 5631 5628 5626 5623 5621 5618 5615 5612 5609 5605 5602 5598 5594 5590 5586 5582 5578 5574
5625 5625 5626 5626 5627 5627 5628 5628 5628 5629 5629 5630 5630 5630 5631 5631 5631 5631 5630 5630 5629 5628 5627 5625 5623 5621 5619 5617 5614 5611 5608 5605 5602 5598 5595 5591 5587 5583 5579 5575 5570 5566 5561
5618 5618 5619 5619 5619 5620 5620 5621 5621 5621 5621 5622 5622 5622 5622 5622 5622 5622 5622 5621 5620 5619 5618 5616 5614 5612 5610 5607 5604 5601 5598 5595 5591 5588 5584 5580 5576 5571 5567 5563 5558 5553 5548
5611 5611 5611 5612 5612 5613 5613 5613 5613 5613 5614 5614 5614 5614 5614 5614 5614 5613 5613 5612 5611 5609 5608 5606 5604 5602 5600 5597 5594 5591 5588 5584 5580 5576 5572 5568 5564 5559 5555 5550 5545 5540 5535
5604 5604 5604 5605 5605 5605 5605 5605 5606 5606 5606 5606 5606 5606 5606 5606 5605 5604 5603 5603 5601 5600 5598 5596 5594 5592 5589 5587 5583 5580 5577 5573 5569 5565 5560 5556 5552 5547 5542 5538 5532 5527 5522
5596 5596 5597 5597 5597 5597 5597 5598 5597 5598 5597 5597 5597 5597 5597 5596 5596 5595 5594 5593 5591 5590 5588 5586 5584 5581 5579 5576 5572 5569 5565 5561 5557 5553 5548 5544 5539 5534 5530 5525 5520 5514 5508
5588 5588 5588 5589 5589 5589 5589 5589 5589 5589 5589 5588 5588 5588 5587 5587 5586 5585 5584 5582 5581 5579 5577 5575 5573 5570 5567 5564 5561 5557 5554 5550 5545 5541 5536 5532 5527 5522 5517 5512 5506 5501 5495
5579 5580 5580 5580 5580 5580 5580 5580 5580 5580 5580 5579 5579 5578 5578 5577 5576 5575 5573 5572 5570 5568 5566 5564 5561 5559 5556 5552 5549 5545 5541 5537 5533 5529 5524 5519 5514 5509 5504 5498 5493 5488 5482
5570 5570 5570 5570 5570 5571 5571 5571 5571 5571 5570 5570 5569 5569 5568 5567 5566 5564 5563 5561 5559 5557 5555 5553 5550 5547 5544 5540 5537 5533 5529 5525 5521 5516 5512 5507 5502 5496 5491 5485 5480 5474 5468
5560 5560 5560 5560 5561 5561 5561 5561 5561 5561 5560 5560 5559 5558 5557 5556 5555 5554 5552 5550 5548 5546 5544 5541 5538 5535 5532 5529 5525 5521 5517 5513 5509 5504 5499 5494 5489 5483 5478 5472 5467 5461 5455
5550 5550 5550 5550 5550 5550 5550 5550 5550 5550 5550 5549 5549 5547 5546 5545 5544 5543 5541 5539 5537 5535 5532 5529 5527 5524 5520 5517 5513 5509 5505 5501 5496 5492 5486 5481 5476 5470 5465 5459 5453 5448 5442
5539 5539 5539 5539 5539 5539 5539 5539 5539 5539 5539 5538 5537 5536 5535 5534 5533 5531 5529 5527 5525 5523 5520 5518 5515 5512 5509 5505 5501 5497 5493 5489 5484 5479 5474 5469 5463 5458 5452 5447 5441 5435 5428
5529 5529 5529 5529 5529 5528 5528 5528 5528 5527 5527 5527 5526 5525 5523 5522 5521 5519 5517 5515 5513 5511 5509 5506 5503 5500 5497 5493 5489 5485 5481 5477 5472 5467 5462 5456 5451 5445 5440 5434 5427 5421 5415
5519 5518 5518 5518 5518 5518 5518 5517 5517 5516 5516 5515 5514 5513 5512 5510 5509 5507 5505 5503 5501 5499 5497 5494 5491 5488 5485 5481 5477 5473 5469 5465 5460 5455 5450 5444 5438 5433 5427 5420 5414 5407 5401
5509 5508 5508 5508 5508 5507 5507 5507 5506 5505 5505 5504 5503 5502 5500 5499 5497 5496 5494 5492 5489 5487 5485 5482 5480 5476 5473 5470 5466 5462 5457 5453 5448 5443 5437 5432 5426 5419 5413 5407 5400 5394 5387
5499 5499 5498 5498 5497 5497 5497 5496 5495 5495 5494 5493 5492 5491 5489 5488 5486 5484 5482 5480 5478 5476 5474 5471 5468 5465 5462 5458 5454 5450 5445 5441 5435 5430 5425 5419 5412 5406 5399 5393 5387 5380 5374